time_stamp(utc),avg(mph),gust(mph),direction(deg),12m_air_temp(f),sonic_u(cm/s),sonic_v(cm/s),sonic_w(cm/s),pressure,2m_air_temp(f),pyranometer(W/m^2)
"2020-09-10 00:03:00+00",10.3,11.3,,74.4,398,254,20,1024.09,74.3,0
"2020-09-10 00:08:00+00",11.4,13.4,,74.4,444,273,18,1024.19,74.3,0
"2020-09-10 00:13:00+00",9.1,11.1,,74.4,369,178,33,1024.23,74.3,0
"2020-09-10 00:18:00+00",12.8,13.8,,74.4,554,236,26,1024.31,74.4,0
"2020-09-10 00:23:00+00",9.8,10.8,,74.4,394,197,11,1024.38,74.3,0
"2020-09-10 00:28:00+00",8.8,9.8,,74.3,359,173,11,1024.38,74.2,0
"2020-09-10 00:33:00+00",7.5,8.5,,74.2,301,150,11,1024.43,73.9,0
"2020-09-10 00:38:00+00",7.0,8.0,,74.3,261,154,16,1024.38,73.8,0
"2020-09-10 00:43:00+00",6.8,7.8,,74.5,270,144,29,1024.29,73.9,0
"2020-09-10 00:48:00+00",8.2,10.2,,74.7,329,173,9,1024.29,74.1,0
"2020-09-10 00:53:00+00",8.9,9.9,,74.8,357,184,17,1024.38,74.2,0
"2020-09-10 00:58:00+00",9.5,10.5,,74.9,403,154,28,1024.45,74.4,0
"2020-09-10 01:03:00+00",11.9,12.9,,74.9,506,228,19,1024.43,74.5,0
"2020-09-10 01:08:00+00",10.2,12.2,,74.8,389,245,29,1024.41,74.5,0
"2020-09-10 01:13:00+00",11.9,13.9,,74.6,450,285,40,1024.41,74.4,0
"2020-09-10 01:18:00+00",11.1,13.1,,74.5,399,282,32,1024.34,74.3,0
"2020-09-10 01:23:00+00",11.8,13.8,,74.5,416,308,5,1024.26,74.3,0
"2020-09-10 01:28:00+00",11.7,13.7,,74.6,442,294,12,1024.34,74.4,0
"2020-09-10 01:33:00+00",10.8,13.8,,74.6,402,256,31,1024.32,74.4,0
"2020-09-10 01:38:00+00",9.8,10.8,,74.6,409,207,11,1024.49,74.5,0
"2020-09-10 01:43:00+00",10.9,12.9,,74.7,400,277,21,1024.33,74.6,0
"2020-09-10 01:48:00+00",7.5,8.5,,74.8,292,156,18,1024.53,74.6,0
"2020-09-10 01:53:00+00",6.2,7.2,,75.1,257,91,19,1024.44,74.8,0
"2020-09-10 01:58:00+00",5.5,7.5,,75.2,215,112,19,1024.39,74.9,0
"2020-09-10 02:03:00+00",8.8,9.8,,75.3,381,96,22,1024.45,75,0
"2020-09-10 02:08:00+00",10.5,12.5,,75.3,454,72,28,1024.46,75.1,0
"2020-09-10 02:13:00+00",9.9,12.9,,75.3,448,102,32,1024.48,75.2,0
"2020-09-10 02:18:00+00",9.4,10.4,,75.3,405,107,25,1024.51,75.2,0
"2020-09-10 02:23:00+00",9.8,10.8,,75.3,421,90,34,1024.51,75.2,0
"2020-09-10 02:28:00+00",11.8,14.8,,75.3,541,87,33,1024.55,75.2,0
"2020-09-10 02:33:00+00",11.7,12.7,,75.3,510,129,19,1024.49,75.2,0
"2020-09-10 02:38:00+00",10.9,12.9,,75.3,471,92,31,1024.45,75.2,0
"2020-09-10 02:43:00+00",11.3,13.3,,75.3,502,96,26,1024.4,75.2,0
"2020-09-10 02:48:00+00",10.0,13.0,,75.3,440,115,25,1024.35,75.2,0
"2020-09-10 02:53:00+00",12.2,14.2,,75.3,558,43,24,1024.29,75.2,0
"2020-09-10 02:58:00+00",12.3,16.3,,75.3,542,13,44,1024.22,75.2,0
"2020-09-10 03:03:00+00",11.3,14.3,,75.2,500,9,39,1024.13,75.2,0
"2020-09-10 03:08:00+00",11.5,13.5,,75.2,515,30,35,1024.2,75.2,0
"2020-09-10 03:13:00+00",11.2,13.2,,75.2,510,19,21,1024.16,75.2,0
"2020-09-10 03:18:00+00",9.7,10.7,,75.2,434,30,23,1024.16,75.2,0
"2020-09-10 03:23:00+00",8.1,9.1,,75.3,356,31,35,1024.09,75.2,0
"2020-09-10 03:28:00+00",11.0,13.0,,75.3,489,52,23,1024.11,75.2,0
"2020-09-10 03:33:00+00",9.8,11.8,,75.2,440,63,27,1024.05,75.2,0
"2020-09-10 03:38:00+00",10.3,12.3,,75.3,449,59,30,1023.93,75.2,0
"2020-09-10 03:43:00+00",10.5,12.5,,75.3,461,99,28,1023.99,75.2,0
"2020-09-10 03:48:00+00",10.0,12.0,,75.3,443,68,33,1023.95,75.2,0
"2020-09-10 03:53:00+00",10.7,11.7,,75.3,473,71,33,1023.99,75.2,0
"2020-09-10 03:58:00+00",10.3,11.3,,75.3,456,54,30,1023.95,75.2,0
"2020-09-10 04:03:00+00",11.3,12.3,,75.3,500,89,20,1023.94,75.2,0
"2020-09-10 04:08:00+00",10.1,11.1,,75.2,448,98,33,1023.94,75.2,0
"2020-09-10 04:13:00+00",8.7,10.7,,75.2,382,79,30,1023.97,75.1,0
"2020-09-10 04:18:00+00",9.2,10.2,,75.1,403,80,13,1024.02,75.1,0
"2020-09-10 04:23:00+00",9.2,10.2,,75.1,396,120,18,1024.01,75,0
"2020-09-10 04:28:00+00",8.5,9.5,,75.1,376,82,23,1024.03,75,0
"2020-09-10 04:33:00+00",8.9,9.9,,75.1,383,110,25,1023.99,75,0
"2020-09-10 04:38:00+00",9.5,11.5,,75.1,415,79,39,1023.97,75,0
"2020-09-10 04:43:00+00",8.6,10.6,,75.1,378,123,21,1023.87,75,0
"2020-09-10 04:48:00+00",10.6,12.6,,75.1,447,175,25,1023.78,75,0
"2020-09-10 04:53:00+00",9.8,11.8,,75.2,413,153,16,1023.81,75,0
"2020-09-10 04:58:00+00",8.9,9.9,,75.2,385,120,18,1023.74,75,0
"2020-09-10 05:03:00+00",8.6,10.6,,75.3,365,132,8,1023.7,75.1,0
"2020-09-10 05:08:00+00",8.4,10.4,,75.3,362,150,21,1023.62,75.1,0
"2020-09-10 05:13:00+00",8.9,9.9,,75.4,387,72,20,1023.69,75.1,0
"2020-09-10 05:18:00+00",9.5,10.5,,75.4,411,92,24,1023.71,75.2,0
"2020-09-10 05:23:00+00",8.6,9.6,,75.5,373,85,34,1023.68,75.3,0
"2020-09-10 05:28:00+00",8.3,10.3,,75.5,354,108,29,1023.62,75.3,0
"2020-09-10 05:33:00+00",8.2,10.2,,75.5,353,119,26,1023.68,75.3,0
"2020-09-10 05:38:00+00",9.2,10.2,,75.5,384,153,19,1023.69,75.4,0
"2020-09-10 05:43:00+00",7.5,9.5,,75.5,322,103,25,1023.62,75.4,0
"2020-09-10 05:48:00+00",8.4,9.4,,75.5,355,148,20,1023.62,75.4,0
"2020-09-10 05:53:00+00",7.7,9.7,,75.5,325,123,26,1023.59,75.4,0
"2020-09-10 05:58:00+00",8.3,9.3,,75.6,365,53,34,1023.7,75.4,0
"2020-09-10 06:03:00+00",7.6,9.6,,75.6,342,49,32,1023.66,75.5,0
"2020-09-10 06:08:00+00",8.8,9.8,,75.6,390,34,15,1023.66,75.5,0
"2020-09-10 06:13:00+00",6.4,7.4,,75.6,282,-19,7,1023.57,75.5,0
"2020-09-10 06:18:00+00",7.7,8.7,,75.6,343,27,9,1023.6,75.4,0
"2020-09-10 06:23:00+00",8.4,9.4,,75.6,363,80,26,1023.44,75.4,0
"2020-09-10 06:28:00+00",7.0,8.0,,75.6,306,27,25,1023.34,75.4,0
"2020-09-10 06:33:00+00",7.3,8.3,,75.6,312,82,24,1023.27,75.4,0
"2020-09-10 06:38:00+00",7.4,8.4,,75.5,328,58,18,1023.3,75.4,0
"2020-09-10 06:43:00+00",6.9,7.9,,75.5,295,80,20,1023.2,75.3,0
"2020-09-10 06:48:00+00",6.5,7.5,,75.5,277,49,16,1023.23,75.3,0
"2020-09-10 06:53:00+00",5.9,6.9,,75.5,255,56,11,1023.24,75.3,0
"2020-09-10 06:58:00+00",6.5,7.5,,75.5,273,79,23,1023.15,75.2,0
"2020-09-10 07:03:00+00",6.9,7.9,,75.5,293,96,11,1023.1,75.3,0
"2020-09-10 07:08:00+00",7.2,8.2,,75.5,307,105,23,1023.04,75.3,0
"2020-09-10 07:13:00+00",6.8,7.8,,75.5,289,100,13,1023.02,75.3,0
"2020-09-10 07:18:00+00",6.3,7.3,,75.6,255,116,17,1022.84,75.3,0
"2020-09-10 07:23:00+00",6.7,8.7,,75.6,274,133,23,1022.8,75.3,0
"2020-09-10 07:28:00+00",7.4,8.4,,75.6,293,160,5,1022.59,75.3,0
"2020-09-10 07:33:00+00",6.4,7.4,,75.6,264,117,20,1022.58,75.3,0
"2020-09-10 07:38:00+00",6.6,7.6,,75.6,279,104,16,1022.61,75.3,0
"2020-09-10 07:43:00+00",7.0,8.0,,75.6,304,79,14,1022.65,75.3,0
"2020-09-10 07:48:00+00",6.3,8.3,,75.6,261,89,12,1022.67,75.4,0
"2020-09-10 07:53:00+00",6.1,7.1,,75.6,234,125,10,1022.58,75.3,0
"2020-09-10 07:58:00+00",5.5,6.5,,75.6,202,127,10,1022.65,75.3,0
"2020-09-10 08:03:00+00",5.0,6.0,,75.6,192,95,5,1022.79,75.3,0
"2020-09-10 08:08:00+00",4.6,5.6,,75.6,186,69,10,1022.83,75.3,0
"2020-09-10 08:13:00+00",3.6,4.6,,75.6,152,12,7,1022.75,75.3,0
"2020-09-10 08:18:00+00",4.1,5.1,,75.5,141,-104,7,1022.78,75.3,0
"2020-09-10 08:23:00+00",1.1,2.1,,75.5,15,-28,2,1022.75,75.3,0
"2020-09-10 08:28:00+00",1.6,1.6,,75.5,53,5,14,1022.85,75.3,0
"2020-09-10 08:33:00+00",1.7,2.7,,75.5,-50,-57,5,1023.18,75.2,0
"2020-09-10 08:38:00+00",5.8,5.8,,75.4,-71,242,-1,1022.9,75.2,0
"2020-09-10 08:43:00+00",5.2,6.2,,75.4,-92,195,12,1022.74,75.2,0
"2020-09-10 08:48:00+00",5.0,6.0,,75.2,-9,211,-3,1022.67,75.2,0
"2020-09-10 08:53:00+00",3.4,4.4,,75.3,-36,134,-9,1022.71,75.1,0
"2020-09-10 08:58:00+00",2.1,3.1,,74.7,-85,23,-4,1022.86,75.1,0
"2020-09-10 09:03:00+00",19.4,20.4,,75,-270,-833,-23,1023.96,74.7,0
"2020-09-10 09:08:00+00",17.3,20.3,,73.4,-665,-464,4,1023.49,73.4,0
"2020-09-10 09:13:00+00",7.0,8.0,,73.5,-240,-188,23,1023.35,73.4,0
"2020-09-10 09:18:00+00",7.7,8.7,,73.6,-235,-241,-15,1023.69,73.4,0
"2020-09-10 09:23:00+00",8.1,10.1,,73.6,-334,-159,2,1023.76,73.5,0
"2020-09-10 09:28:00+00",6.8,8.8,,73,-208,-194,5,1023.63,73.3,0
"2020-09-10 09:33:00+00",5.9,6.9,,72.9,-199,-162,1,1023.51,73,0
"2020-09-10 09:38:00+00",5.4,7.4,,73.1,-210,-125,16,1023.62,72.9,0
"2020-09-10 09:43:00+00",5.3,6.3,,73.2,-211,-41,24,1023.68,72.9,0
"2020-09-10 09:48:00+00",6.2,7.2,,73.4,-259,-67,2,1023.65,73.1,0
"2020-09-10 09:53:00+00",5.3,6.3,,73.4,-226,-52,2,1023.75,73.1,0
"2020-09-10 09:58:00+00",5.8,6.8,,73.4,-230,-58,8,1023.65,73.2,0
"2020-09-10 10:03:00+00",5.6,6.6,,73.3,-215,-66,10,1023.62,73.2,0
"2020-09-10 10:08:00+00",5.0,6.0,,73.3,-195,-56,4,1023.53,73.1,0
"2020-09-10 10:13:00+00",5.0,6.0,,73.3,-201,-83,5,1023.42,73.1,0
"2020-09-10 10:18:00+00",6.3,7.3,,73.3,-255,-100,-4,1023.45,73.1,0
"2020-09-10 10:23:00+00",5.5,6.5,,73.4,-216,-95,5,1023.42,73.1,0
"2020-09-10 10:28:00+00",6.0,7.0,,73.3,-244,-109,6,1023.49,73.1,0
"2020-09-10 10:33:00+00",6.8,7.8,,73.3,-270,-93,15,1023.53,73.1,0
"2020-09-10 10:38:00+00",6.4,8.4,,73.3,-268,-74,4,1023.55,73.1,0
"2020-09-10 10:43:00+00",6.0,7.0,,73.3,-251,-27,6,1023.63,73,0
"2020-09-10 10:48:00+00",4.7,5.7,,73.4,-190,-41,4,1023.5,73,0
"2020-09-10 10:53:00+00",5.0,6.0,,73.4,-195,-92,1,1023.51,73,0
"2020-09-10 10:58:00+00",4.1,5.1,,73.4,-160,-98,4,1023.48,73,0
"2020-09-10 11:03:00+00",4.3,5.3,,73.4,-136,-118,5,1023.44,73,0
"2020-09-10 11:08:00+00",4.7,4.7,,73.5,-130,-149,0,1023.39,73,0
"2020-09-10 11:13:00+00",5.9,6.9,,73.6,-179,-179,-4,1023.41,73,0
"2020-09-10 11:18:00+00",6.0,7.0,,73.7,-179,-187,-2,1023.39,73.1,0
"2020-09-10 11:23:00+00",5.5,6.5,,73.7,-164,-180,-4,1023.2,73.1,0
"2020-09-10 11:28:00+00",2.6,3.6,,73.8,-55,-84,-5,1023.06,73.2,0
"2020-09-10 11:33:00+00",2.9,2.9,,73.7,-97,-74,-1,1023.06,73.2,0
"2020-09-10 11:38:00+00",3.1,3.1,,73.8,-101,71,1,1022.9,73.3,0
"2020-09-10 11:43:00+00",2.3,2.3,,73.9,-86,31,0,1022.86,73.4,0
"2020-09-10 11:48:00+00",1.8,1.8,,73.9,-55,-44,1,1022.85,73.6,0
"2020-09-10 11:53:00+00",2.4,2.4,,73.9,-24,-86,-6,1022.74,73.7,0
"2020-09-10 11:58:00+00",1.9,2.9,,74,-19,-64,-1,1022.76,73.7,0
"2020-09-10 12:03:00+00",0.5,1.5,,74,-19,-25,-3,1022.73,73.7,0
"2020-09-10 12:08:00+00",0.0,0.0,,74.1,-43,17,-1,1022.88,73.9,0
"2020-09-10 12:13:00+00",1.8,2.8,,74.2,-49,42,7,1022.83,74.1,0
"2020-09-10 12:18:00+00",2.5,2.5,,74.4,-30,91,6,1022.78,74.2,0
"2020-09-10 12:23:00+00",1.9,2.9,,74.5,-30,70,7,1022.87,74.4,0
"2020-09-10 12:28:00+00",1.8,2.8,,74.6,-38,58,2,1022.82,74.6,0
"2020-09-10 12:33:00+00",2.3,3.3,,74.7,-79,30,10,1022.85,74.7,0
"2020-09-10 12:38:00+00",2.0,2.0,,74.8,-80,23,6,1022.84,75.1,0
"2020-09-10 12:43:00+00",2.6,3.6,,74.9,-94,-58,-6,1022.82,75.5,0
"2020-09-10 12:48:00+00",2.8,3.8,,75.2,-100,-63,3,1022.87,75.5,0
"2020-09-10 12:53:00+00",4.0,5.0,,75.3,-93,-139,-10,1022.84,74.8,0
"2020-09-10 12:58:00+00",4.3,4.3,,75.4,-60,-171,6,1022.96,74.2,0
"2020-09-10 13:03:00+00",4.2,5.2,,75.4,-67,-163,-3,1022.93,74.1,0
"2020-09-10 13:08:00+00",3.5,4.5,,75.5,-48,-146,0,1023,74.3,0
"2020-09-10 13:13:00+00",3.7,4.7,,75.5,-53,-138,-5,1023.02,74.3,0
"2020-09-10 13:18:00+00",3.5,4.5,,75.6,-10,-138,-6,1022.99,74.5,0
"2020-09-10 13:23:00+00",3.9,4.9,,75.6,-16,-153,-8,1022.99,74.6,0
"2020-09-10 13:28:00+00",3.2,4.2,,75.8,58,-116,3,1023.09,74.8,0
"2020-09-10 13:33:00+00",4.0,5.0,,75.7,59,-147,-10,1023.15,74.8,0
"2020-09-10 13:38:00+00",3.8,5.8,,75.8,35,-159,-11,1023.24,74.7,0
"2020-09-10 13:43:00+00",5.4,6.4,,75.6,98,-197,-13,1023.3,74.5,0
"2020-09-10 13:48:00+00",5.2,6.2,,75.6,64,-211,-8,1023.33,74.6,0
"2020-09-10 13:53:00+00",5.8,6.8,,75.7,132,-202,-5,1023.31,74.4,0
"2020-09-10 13:58:00+00",5.7,5.7,,75.7,132,-196,-11,1023.33,74.7,0
"2020-09-10 14:03:00+00",5.9,5.9,,75.8,141,-206,-15,1023.34,74.7,0
"2020-09-10 14:08:00+00",5.2,6.2,,75.8,142,-158,3,1023.32,74.9,0
"2020-09-10 14:13:00+00",5.6,6.6,,75.8,191,-146,-9,1023.27,75.1,0
"2020-09-10 14:18:00+00",4.4,5.4,,75.9,150,-103,20,1023.36,75.3,0
"2020-09-10 14:23:00+00",4.3,4.3,,75.9,174,-55,8,1023.43,75.5,0
"2020-09-10 14:28:00+00",4.8,4.8,,75.9,202,-54,-5,1023.36,75.6,0
"2020-09-10 14:33:00+00",5.6,6.6,,75.9,239,-58,0,1023.36,75.8,0
"2020-09-10 14:38:00+00",6.9,7.9,,75.8,290,-95,-8,1023.22,75.8,0
"2020-09-10 14:43:00+00",5.2,6.2,,76,217,-71,6,1023.29,76.1,0
"2020-09-10 14:48:00+00",5.6,6.6,,76,243,12,19,1023.28,76.4,0
"2020-09-10 14:53:00+00",3.6,4.6,,76.1,125,-62,25,1023.29,76.5,0
"2020-09-10 14:58:00+00",4.9,5.9,,76.2,192,-92,11,1023.34,76.6,0
"2020-09-10 15:03:00+00",5.3,6.3,,76.2,205,-106,-2,1023.33,76.5,0
"2020-09-10 15:08:00+00",4.6,5.6,,76.2,192,-67,9,1023.25,76.5,0
"2020-09-10 15:13:00+00",5.1,6.1,,76.2,203,-82,-2,1023.21,76.6,0
"2020-09-10 15:18:00+00",5.9,6.9,,76.1,249,-83,12,1023.26,76.6,0
"2020-09-10 15:23:00+00",5.1,6.1,,76.1,211,-82,12,1023.12,76.6,0
"2020-09-10 15:28:00+00",6.8,7.8,,76,301,-15,0,1023.01,76.5,0
"2020-09-10 15:33:00+00",6.3,7.3,,76,270,15,21,1023,76.4,0
"2020-09-10 15:38:00+00",6.5,7.5,,75.9,287,39,17,1022.95,76.5,0
"2020-09-10 15:43:00+00",5.9,7.9,,75.9,256,-1,10,1022.92,76.4,0
"2020-09-10 15:48:00+00",6.0,7.0,,75.9,258,21,35,1022.84,76.5,0
"2020-09-10 15:53:00+00",6.5,7.5,,75.8,290,0,10,1022.8,76.4,0
"2020-09-10 15:58:00+00",6.1,7.1,,75.9,269,13,34,1022.73,76.4,0
"2020-09-10 16:03:00+00",7.1,7.1,,75.9,316,-2,7,1022.73,76.5,0
"2020-09-10 16:08:00+00",7.4,8.4,,75.9,329,28,10,1022.67,76.6,0
"2020-09-10 16:13:00+00",7.1,8.1,,75.9,307,67,0,1022.58,77,0
"2020-09-10 16:18:00+00",6.2,8.2,,76.2,263,53,21,1022.5,77.3,0
"2020-09-10 16:23:00+00",6.1,7.1,,76.2,267,38,22,1022.52,77.6,0
"2020-09-10 16:28:00+00",6.0,7.0,,76.3,249,107,25,1022.45,77.9,0
"2020-09-10 16:33:00+00",6.5,7.5,,76.2,285,22,42,1022.42,78,0
"2020-09-10 16:38:00+00",6.4,7.4,,76.3,285,-4,29,1022.42,78.1,0
"2020-09-10 16:43:00+00",8.2,9.2,,76.2,355,114,33,1022.41,78,0
"2020-09-10 16:48:00+00",7.8,8.8,,76.2,339,90,8,1022.39,78.1,0
"2020-09-10 16:53:00+00",8.1,8.1,,76.1,350,103,2,1022.41,78.2,0
"2020-09-10 16:58:00+00",7.6,8.6,,76.2,325,86,4,1022.3,78.3,0
"2020-09-10 17:03:00+00",6.4,7.4,,76.4,276,61,19,1022.25,78.3,0
"2020-09-10 17:08:00+00",7.8,9.8,,76.4,322,113,0,1022.19,78.7,0
"2020-09-10 17:13:00+00",6.7,7.7,,76.6,303,3,51,1022.08,79,0
"2020-09-10 17:18:00+00",7.8,8.8,,76.6,341,76,12,1022.09,79,0
"2020-09-10 17:23:00+00",8.2,9.2,,76.6,369,14,28,1022.03,78.9,0
"2020-09-10 17:28:00+00",8.9,9.9,,76.4,398,2,3,1021.97,78.6,0
"2020-09-10 17:33:00+00",8.8,9.8,,76.4,395,32,24,1021.99,78.6,0
"2020-09-10 17:38:00+00",8.1,9.1,,76.4,354,86,7,1021.91,78.7,0
"2020-09-10 17:43:00+00",8.1,9.1,,76.5,351,60,17,1021.82,78.7,0
"2020-09-10 17:48:00+00",8.6,9.6,,76.5,373,96,8,1021.83,78.8,0
"2020-09-10 17:53:00+00",8.2,9.2,,76.5,348,136,22,1021.74,79,0
"2020-09-10 17:58:00+00",9.3,10.3,,76.5,399,132,13,1021.63,78.9,0
"2020-09-10 18:03:00+00",9.3,10.3,,76.5,397,136,3,1021.61,78.8,0
"2020-09-10 18:08:00+00",7.8,9.8,,76.5,339,83,67,1021.56,78.8,0
"2020-09-10 18:13:00+00",9.8,10.8,,76.3,411,142,11,1021.56,78.8,0
"2020-09-10 18:18:00+00",8.9,9.9,,76.3,356,191,19,1021.43,78.5,0
"2020-09-10 18:23:00+00",7.6,9.6,,76.1,304,141,14,1021.32,78.2,0
"2020-09-10 18:28:00+00",5.8,6.8,,76,255,23,9,1021.5,77.7,0
"2020-09-10 18:33:00+00",8.0,9.0,,75.9,332,159,12,1021.26,77.4,0
"2020-09-10 18:38:00+00",8.2,9.2,,75.9,341,160,4,1021.3,77.2,0
"2020-09-10 18:43:00+00",6.5,7.5,,76,255,136,21,1021.26,77.2,0
"2020-09-10 18:48:00+00",7.4,8.4,,75.9,319,97,10,1021.15,77,0
"2020-09-10 18:53:00+00",7.7,8.7,,75.9,335,87,33,1021.11,76.9,0
"2020-09-10 18:58:00+00",8.0,9.0,,75.8,343,97,20,1021.13,76.7,0
"2020-09-10 19:03:00+00",9.1,10.1,,75.7,412,14,13,1021.19,76.6,0
"2020-09-10 19:08:00+00",9.1,10.1,,75.6,405,79,29,1021.17,76.4,0
"2020-09-10 19:13:00+00",8.2,9.2,,75.5,362,-30,8,1021.24,76.2,0
"2020-09-10 19:18:00+00",6.8,7.8,,75.4,289,75,4,1021.16,76.2,0
"2020-09-10 19:23:00+00",7.7,8.7,,75.4,331,95,16,1021.22,76.1,0
"2020-09-10 19:28:00+00",5.6,6.6,,75.5,236,97,18,1021.2,76.1,0
"2020-09-10 19:33:00+00",6.3,7.3,,75.6,280,64,4,1021.21,76,0
"2020-09-10 19:38:00+00",5.9,6.9,,75.6,249,72,18,1021.16,76,0
"2020-09-10 19:43:00+00",4.2,5.2,,75.6,175,48,14,1021.12,76,0
"2020-09-10 19:48:00+00",6.0,7.0,,75.5,257,51,21,1021.03,75.9,0
"2020-09-10 19:53:00+00",6.1,7.1,,75.5,263,69,23,1020.95,75.9,0
"2020-09-10 19:58:00+00",3.9,4.9,,75.5,145,68,27,1020.94,75.9,0
"2020-09-10 20:03:00+00",5.3,6.3,,75.6,-69,223,5,1020.97,75.9,0
"2020-09-10 20:08:00+00",6.8,7.8,,75.6,-51,288,7,1020.93,75.9,0
"2020-09-10 20:13:00+00",7.1,9.1,,75.5,190,227,-6,1020.81,76,0
"2020-09-10 20:18:00+00",6.1,6.1,,75.6,259,75,21,1020.84,76,0
"2020-09-10 20:23:00+00",6.2,7.2,,75.5,149,207,2,1020.65,76,0
"2020-09-10 20:28:00+00",7.9,8.9,,75.7,207,250,6,1020.65,76.1,0
"2020-09-10 20:33:00+00",6.8,7.8,,75.7,254,149,15,1020.59,76.1,0
"2020-09-10 20:38:00+00",5.9,6.9,,75.7,218,141,25,1020.55,76.1,0
"2020-09-10 20:43:00+00",5.7,6.7,,75.7,212,130,18,1020.54,76.1,0
"2020-09-10 20:48:00+00",8.7,9.7,,75.5,370,155,17,1020.56,76.1,0
"2020-09-10 20:53:00+00",7.1,8.1,,75.6,285,137,13,1020.57,76,0
"2020-09-10 20:58:00+00",5.7,6.7,,75.7,235,80,40,1020.48,76,0
"2020-09-10 21:03:00+00",7.1,7.1,,75.5,313,30,12,1020.6,75.9,0
"2020-09-10 21:08:00+00",6.8,7.8,,75.6,289,38,18,1020.47,75.9,0
"2020-09-10 21:13:00+00",6.4,6.4,,75.5,278,65,10,1020.47,75.8,0
"2020-09-10 21:18:00+00",5.4,6.4,,75.6,230,48,17,1020.46,75.8,0
"2020-09-10 21:23:00+00",5.5,6.5,,75.6,240,32,13,1020.44,75.8,0
"2020-09-10 21:28:00+00",5.3,5.3,,75.5,222,56,10,1020.5,75.7,0
"2020-09-10 21:33:00+00",4.4,5.4,,75.6,187,24,13,1020.55,75.7,0
"2020-09-10 21:38:00+00",5.4,6.4,,75.4,232,8,9,1020.52,75.6,0
"2020-09-10 21:43:00+00",3.9,4.9,,75.3,157,44,16,1020.49,75.5,0
"2020-09-10 21:48:00+00",5.9,6.9,,75.2,194,173,5,1020.42,75.4,0
"2020-09-10 21:53:00+00",7.2,8.2,,75.1,238,211,4,1020.36,75.3,0
"2020-09-10 21:58:00+00",8.2,9.2,,75.2,237,257,7,1020.25,75.3,0
"2020-09-10 22:03:00+00",7.7,9.7,,75.1,90,318,-8,1020.19,75.2,0
"2020-09-10 22:08:00+00",8.3,10.3,,75,319,207,12,1020.24,75.2,0
"2020-09-10 22:13:00+00",6.6,7.6,,75,283,16,24,1020.39,75.2,0
"2020-09-10 22:18:00+00",5.5,6.5,,75,196,131,12,1020.51,75.2,0
"2020-09-10 22:23:00+00",6.0,7.0,,75.1,172,183,10,1020.45,75.1,0
"2020-09-10 22:28:00+00",8.4,9.4,,75,205,289,-8,1020.37,75.1,0
"2020-09-10 22:33:00+00",6.1,7.1,,75,142,212,-3,1020.41,75.1,0
"2020-09-10 22:38:00+00",6.0,7.0,,75,109,229,1,1020.39,75.1,0
"2020-09-10 22:43:00+00",4.6,5.6,,75.1,175,90,9,1020.46,75.1,0
"2020-09-10 22:48:00+00",5.0,6.0,,75.1,212,53,10,1020.41,75.2,0
"2020-09-10 22:53:00+00",4.7,4.7,,75,126,140,9,1020.24,75.1,0
"2020-09-10 22:58:00+00",4.1,5.1,,75.1,115,128,5,1020.37,75.1,0
"2020-09-10 23:03:00+00",5.0,7.0,,75.1,190,108,13,1020.35,75.1,0
"2020-09-10 23:08:00+00",5.5,6.5,,75.1,232,-21,9,1020.36,75.2,0
"2020-09-10 23:13:00+00",4.6,5.6,,75,193,-21,5,1020.49,75.1,0
"2020-09-10 23:18:00+00",5.0,8.0,,74.9,165,150,11,1020.42,75,0
"2020-09-10 23:23:00+00",6.0,7.0,,74.7,218,134,2,1020.21,74.9,0
"2020-09-10 23:28:00+00",4.6,5.6,,74.7,178,86,26,1020.25,74.8,0
"2020-09-10 23:33:00+00",5.4,6.4,,74.6,228,35,9,1020.12,74.7,0
"2020-09-10 23:38:00+00",3.6,4.6,,74.6,154,25,16,1020.15,74.7,0
"2020-09-10 23:43:00+00",4.1,5.1,,74.6,172,27,13,1020.17,74.6,0
"2020-09-10 23:48:00+00",4.9,6.9,,74.7,209,42,17,1020.29,74.6,0
"2020-09-10 23:53:00+00",5.4,6.4,,74.7,218,97,8,1020.21,74.7,0
"2020-09-10 23:58:00+00",6.1,7.1,,74.7,249,113,7,1020.39,74.7,0
